This demonstration page uses our WeatherBlox Daily Observations layout. Learn more.

Left ArrowRight Arrow

Hourly Observations for March 11, 2019

Temp ( °F °C ) Dew Point ( °F °C ) Humidity (%) Winds ( mph kmh ) Pressure ( in mb ) Visibility ( mi km ) Precip ( " mm )
12:52 am 00:52 Mostly Cloudy 27 -2.8 20 -6.7 75 75 SSE 6 9 30.37 1028 10 16 0.00 0.00
1:52 am 01:52 Mostly Clear 26 -3.3 18 -7.8 71 71 Calm 30.38 1029 10 16 0.00 0.00
2:52 am 02:52 Cloudy 25 -3.9 20 -6.7 81 81 Calm 30.40 1029 10 16 0.00 0.00
3:52 am 03:52 Cloudy 27 -2.8 22 -5.6 81 81 SE 3 6 30.37 1029 10 16 0.00 0.00
4:52 am 04:52 Cloudy 27 -2.8 22 -5.6 81 81 Calm 30.36 1028 10 16 0.00 0.00
5:52 am 05:52 Partly Cloudy 24 -4.4 20 -6.7 84 84 N 3 6 30.39 1029 10 16 0.00 0.00
6:52 am 06:52 Partly Cloudy 23 -5 18 -7.8 81 81 Calm 30.42 1030 10 16 0.00 0.00
7:52 am 07:52 Mostly Cloudy 23 -5 18 -7.8 81 81 S 3 6 30.41 1030 10 16 0.00 0.00
8:52 am 08:52 Mostly Cloudy with Mist and Fog 25 -3.9 21 -6.1 85 85 Calm 30.40 1030 6 10 0.00 0.00
9:52 am 09:52 Cloudy 28 -2.2 22 -5.6 78 78 Calm 30.44 1031 7 11 0.00 0.00
10:52 am 10:52 Partly Cloudy 33 0.6 22 -5.6 64 64 SE 5 7 30.45 1031 10 16 0.00 0.00
11:52 am 11:52 Mostly Sunny 36 2.2 22 -5.6 57 57 SE 7 11 30.44 1031 10 16 0.00 0.00
12:52 pm 12:52 Mostly Sunny 38 3.3 18 -7.8 44 44 S 7 11 30.44 1031 10 16 0.00 0.00
1:52 pm 13:52 Mostly Sunny 39 3.9 21 -6.1 48 48 S 7 11 30.41 1030 10 16 0.00 0.00
2:52 pm 14:52 Mostly Sunny 39 3.9 22 -5.6 50 50 SE 7 11 30.38 1029 10 16 0.00 0.00
3:52 pm 15:52 Partly Cloudy 40 4.4 22 -5.6 49 49 SSE 6 9 30.37 1029 10 16 0.00 0.00
4:52 pm 16:52 Mostly Cloudy 41 5 24 -4.4 51 51 SSE 8 13 30.35 1028 10 16 0.00 0.00
5:52 pm 17:52 Mostly Cloudy 39 3.9 24 -4.4 55 55 SE 10 17 30.36 1028 10 16 0.00 0.00
6:52 pm 18:52 Mostly Cloudy 39 3.9 26 -3.3 60 60 SSE 9 15 30.35 1028 10 16 0.00 0.00
7:52 pm 19:52 Mostly Cloudy 37 2.8 26 -3.3 65 65 ESE 7 11 30.35 1028 10 16 0.00 0.00
8:52 pm 20:52 Mostly Cloudy 34 1.1 24 -4.4 67 67 SSE 8 13 30.36 1028 10 16 0.00 0.00
9:52 pm 21:52 Partly Cloudy 34 1.1 24 -4.4 67 67 S 7 11 30.36 1028 10 16 0.00 0.00
10:52 pm 22:52 Mostly Cloudy 31 -0.6 24 -4.4 76 76 SE 6 9 30.34 1028 10 16 0.00 0.00
11:52 pm 23:52 Mostly Cloudy 34 1.1 24 -4.4 67 67 S 5 7 30.32 1027 10 16 0.00 0.00

Powered by AerisWeather